Location: Calavant�
(43.2048°N, 0.1612°E)
Time: 04:30:04
(UTC+00:00)

Daily predictions for brighter satellites

Satellite Brightness Start Highest point End
(mag) Time Altitude Azimuth Time Altitude Azimuth Time Altitude Azimuth
SJ 16-02 4.2 00:25:14 11° ENE 00:25:14 11° ENE 00:25:37 10° NE
Cosmos 2263 Rocket 4.5 00:32:09 14° WNW 00:33:29 15° NW 00:36:39 10° N
Cosmos 1844 Rocket 3.8 00:46:55 38° NNW 00:46:55 38° NNW 00:50:57 10° NNE
Resurs 1-4 Rocket 3.4 00:57:24 10° NNE 01:01:06 33° ENE 01:01:06 33° ENE
SL-4 R/B 4.3 01:05:32 26° NE 01:05:32 26° NE 01:08:13 10° E
Cosmos 2082 Rocket 4.0 01:00:46 10° N 01:05:31 27° NE 01:08:15 19° E
Cosmos 2218 Rocket 4.3 01:01:12 10° N 01:07:00 59° ENE 01:07:00 59° ENE
CZ-4C R/B 4.0 01:04:29 10° NNW 01:11:10 41° NE 01:18:51 10° ESE
Cosmos 1833 Rocket 3.3 01:06:20 10° NNW 01:11:25 53° NE 01:11:25 53° NE
Cosmos 2366 rocket 4.2 01:09:22 10° N 01:15:08 65° ENE 01:15:08 65° ENE
CZ-2D R/B 3.0 01:11:46 10° NNE 01:16:15 46° ENE 01:16:15 46° ENE
SL-16 R/B 2.8 01:19:17 58° E 01:19:49 60° ENE 01:25:58 10° N
USA 281 4.2 01:24:57 33° WNW 01:24:57 33° WNW 01:29:02 10° NW
Cosmos 2278 Rocket 2.5 01:30:00 62° NE 01:30:00 62° NE 01:34:46 10° NNE
Cosmos 1943 Rocket 4.5 01:29:12 13° ESE 01:30:26 13° E 01:33:04 10° ENE
ADEOS II 3.3 01:30:17 10° NNE 01:35:00 33° E 01:35:02 33° E
Meteor 2-9 Rocket 4.3 01:37:18 10° N 01:42:55 79° NE 01:42:55 79° NE
Gbstr 26 Del rocket 4.1 01:46:45 55° NW 01:47:13 57° NNW 01:52:31 10° NE
ATLAS 5 CENTAUR R/B 2.3 01:42:32 10° NW 01:48:15 86° NE 01:48:21 85° E
Cosmos 1238 Rocket 4.2 01:43:25 10° NNW 01:49:15 59° WNW 01:49:15 59° WNW
COSMOS 2406 3.7 01:46:04 10° NNW 01:50:17 50° NW 01:50:17 50° NW
NPP 3.6 01:52:33 10° NNE 01:57:40 80° N 01:57:40 80° N
IDEFIX/ARIANE 42P 4.2 01:53:42 10° NE 01:58:05 26° E 01:59:37 23° ESE
IRS-1D 4.2 01:55:28 10° NNE 02:00:28 46° E 02:00:56 45° ESE
SJ 16-02 2.7 02:02:12 33° NNW 02:02:12 33° NNW 02:05:05 10° N
NOSS 3-3 (A) 3.9 02:02:18 64° WNW 02:02:41 66° NW 02:09:12 10° NNE
NOSS 3-3 (C) 3.9 02:02:25 65° WNW 02:02:47 66° NW 02:09:18 10° NNE
BREEZE-M DEB (TANK) 4.2 02:06:12 45° SSE 02:06:12 45° SSE 02:16:58 10° SE
Okean 1-7 3.6 02:09:59 53° NE 02:09:59 53° NE 02:13:25 10° NNE
ATLAS 2AS CENTAUR R/B 4.2 02:02:38 10° NNW 02:09:25 36° NE 02:15:43 10° ESE
DELTA 2 R/B (1) 3.7 02:23:21 57° SSE 02:23:21 57° SSE 02:28:17 10° E
CZ-4C R/B 4.1 02:23:10 50° ESE 02:23:51 56° ENE 02:28:11 10° N
ADEOS Rocket 3.5 02:21:30 18° SSE 02:26:23 68° ENE 02:33:28 10° N
Cosmos 1680 Rocket 3.3 02:21:26 10° NNW 02:26:46 80° WSW 02:27:04 76° SSW
Meteor 1-13 Rocket 4.3 02:34:31 45° S 02:36:22 74° E 02:42:04 10° NNE
Meteor 2-4 Rocket 3.9 02:38:27 51° WSW 02:39:17 56° WNW 02:45:06 10° N
Meteor 1-12 Rocket 4.4 02:35:41 10° N 02:41:44 81° E 02:45:21 25° SSE
Resurs 1-4 Rocket 3.1 02:37:27 10° N 02:41:58 30° WNW 02:42:11 30° WNW
SL-4 R/B 2.3 02:41:13 26° NW 02:43:59 86° NE 02:48:47 10° ESE
Cosmos 2242 Rocket 4.3 02:46:17 40° WNW 02:46:17 40° WNW 02:49:57 10° N
Sich 1 Rocket 4.2 02:41:20 10° N 02:45:52 58° E 02:48:26 25° SSE
USA 234 3.2 02:40:06 10° NE 02:46:41 84° NW 02:49:15 41° WSW
Cosmos 2082 Rocket 2.3 02:44:27 10° NW 02:49:51 49° WSW 02:50:01 49° WSW
Helios 1B rocket 4.5 02:49:12 10° NNW 02:51:10 16° NW 02:51:10 16° NW
Cosmos 2239 Rocket 4.5 02:47:06 10° NNW 02:53:12 61° W 02:55:25 39° SSW
Cosmos 1833 Rocket 4.4 02:51:06 10° NW 02:53:04 18° WNW 02:53:04 18° WNW
Cosmos 1356 Rocket 3.6 02:52:25 10° N 02:56:32 68° ENE 02:58:36 28° SSE
CZ-2D R/B 3.5 02:52:28 10° N 02:56:48 25° WNW 02:57:34 24° WNW
Meteor 1-28 Rocket 4.0 02:58:47 38° NW 02:58:47 38° NW 03:01:25 10° NNW
CZ-4C R/B 3.0 02:52:50 10° NW 03:00:09 60° WSW 03:08:27 10° SSE
MSX 4.0 02:55:43 10° NNE 03:01:29 71° ESE 03:05:02 24° S
IRS-P3 4.1 02:58:21 10° NNE 03:03:44 85° ESE 03:06:22 31° S
SL-16 R/B 3.7 03:04:22 23° W 03:04:22 23° W 03:08:40 10° NW
Cosmos 1937 Rocket 3.7 03:05:40 41° WSW 03:06:56 51° WNW 03:11:58 10° N
Cosmos 2084 3.8 03:08:33 43° W 03:09:17 48° NW 03:13:26 10° NNE
ARIANE 5 R/B 2.6 03:07:51 10° NNE 03:13:08 81° ESE 03:16:19 24° S
Cosmos 1943 Rocket 2.1 03:10:44 34° SSW 03:13:21 86° WNW 03:19:03 10° NNE
ARGOS Delta rocket 4.4 03:09:32 10° N 03:13:29 33° WNW 03:13:56 32° W
Cosmos 1898 Rocket 4.4 03:12:11 30° W 03:13:30 34° WNW 03:18:19 10° N
Cosmos 2278 Rocket 3.9 03:11:50 16° WNW 03:13:49 19° NW 03:17:51 10° N
ADEOS II 2.9 03:09:58 10° N 03:14:39 33° WNW 03:15:59 29° W
Cosmos 1339 Rocket 4.5 03:13:42 24° SSW 03:17:41 76° W 03:24:06 10° N
Cosmos 1842 4.4 03:17:40 13° SSE 03:20:49 42° E 03:24:30 10° NNE
Milstar 3 4.0 03:20:33 23° SSW 03:23:31 30° S 03:32:17 10° ESE
Cosmos 1066 Rocket 4.4 03:21:51 28° SW 03:24:54 59° WNW 03:30:43 10° N
Spot 4 Rocket 4.4 03:20:26 10° NNE 03:25:34 65° E 03:30:17 12° S
Meteor 1-15 Rocket 4.1 03:22:18 10° NNW 03:27:51 70° W 03:33:25 10° S
Cosmos 2298 Rocket 4.3 03:24:39 17° S 03:28:46 65° ESE 03:34:02 10° NNE
Cosmos 372 Rocket 4.0 03:26:24 30° SW 03:28:48 60° WNW 03:33:52 10° NNE
FALCON 9 DEB 3.6 03:30:20 35° S 03:30:20 35° S 03:32:30 10° SSE
ATLAS 5 CENTAUR R/B 4.1 03:28:28 10° WNW 03:29:45 14° W 03:29:45 14° W
X-37B 0.9 03:33:10 34° WNW 03:34:20 63° N 03:37:29 10° ENE
CZ-2D R/B 3.4 03:32:12 10° N 03:36:21 79° WNW 03:39:12 20° SSW
Cosmos 2151 Rocket 3.5 03:31:48 10° N 03:36:21 79° W 03:40:52 10° S
Okean 2 4.3 03:32:42 10° SSE 03:36:40 48° E 03:40:41 10° NNE
Cosmos 1300 Rocket 3.9 03:33:04 10° NNW 03:37:19 46° W 03:39:59 21° SSW
IDEFIX/ARIANE 42P 3.1 03:32:54 10° N 03:37:46 41° WNW 03:40:26 24° WSW
Cosmos 2369 Rocket 2.2 03:34:19 18° SSW 03:38:31 83° ESE 03:44:10 10° NNE
Okean 2 Rocket 3.2 03:36:23 10° NNW 03:40:43 53° W 03:44:24 14° SSW
CZ-3B R/B 4.0 03:25:17 19° SW 03:40:50 90° NW 03:45:53 10° NE
Meteor 1-23 Rocket 4.4 03:38:19 20° SSW 03:42:11 56° WNW 03:47:52 10° N
DNEPR-1 R/B 4.3 03:38:35 18° SSW 03:43:23 83° ESE 03:48:39 10° NE
CZ-2C R/B 3.1 03:41:25 10° NNE 03:45:12 65° ESE 03:49:02 10° S
NOSS 3-4 (A) 4.1 03:39:30 10° NW 03:46:21 49° WSW 03:53:52 10° S
NOSS 3-4 (C) 4.1 03:39:37 10° NW 03:46:28 49° WSW 03:54:00 10° S
Cosmos 2221 Rocket 4.1 03:44:54 23° SW 03:47:15 42° WNW 03:51:35 10° N
Cosmos 1125 Rocket 3.7 03:44:42 10° S 03:49:57 73° ESE 03:55:13 10° NNE
BREEZE-M DEB (TANK) 1.8 03:49:48 18° WNW 03:51:15 74° SW 03:55:06 10° SE
SL-08 R/B 3.7 03:48:03 10° S 03:52:41 42° W 03:57:17 10° NNW
Cosmos 1766 3.7 03:52:54 10° NNW 03:56:40 41° W 04:00:25 10° SSW
CZ-4B R/B 4.1 03:53:03 10° N 03:57:20 34° WNW 04:00:24 17° WSW
ATLAS 2AS CENTAUR R/B 2.7 03:53:39 10° NW 04:00:48 61° WSW 04:07:23 10° SSE
Okean 1 Rocket 3.0 04:00:02 10° N 04:04:31 83° W 04:08:57 10° S
Cosmos 1733 4.2 04:03:01 10° NNW 04:06:11 26° W 04:08:39 14° SW
Cosmos 2150 Rocket 4.2 04:02:17 11° SSW 04:07:26 64° WNW 04:12:50 10° NNE
FALCON 9 DEB 4.4 04:08:09 18° SW 04:08:22 18° SW 04:10:32 10° S
FENGYUN 3A 4.0 04:03:10 10° NNE 04:08:33 68° ESE 04:13:53 10° S
DELTA 2 R/B (1) 3.9 04:04:06 13° W 04:08:56 49° SSW 04:14:18 10° ESE
ADEOS Rocket 4.3 04:08:26 12° SW 04:12:35 22° W 04:17:47 10° NW
Meteor 2-20 Rocket 4.5 04:08:48 10° SSW 04:14:53 70° W 04:21:04 10° N
Meteor 1-22 Rocket 4.5 04:09:56 10° NNW 04:15:20 50° W 04:20:57 10° SSW
Cosmos 1656 Rocket 3.6 04:12:33 10° SSW 04:17:56 77° WNW 04:23:26 10° NNE
SL-27 R/B 2.6 04:16:29 10° NNW 04:19:49 71° ENE 04:23:05 10° SSE
USA 305 4.4 04:17:08 10° NW 04:21:10 38° NNE 04:25:11 10° E
SL-4 R/B 3.6 04:19:40 10° W 04:23:14 21° SW 04:26:43 10° S
Cosmos 1674 4.5 04:20:09 10° SSE 04:23:36 35° E 04:27:06 10° NNE
Cosmos 1470 2.7 04:20:01 10° NNW 04:23:49 60° W 04:27:37 10° S
Cosmos 1378 Rocket 4.2 04:20:04 10° SW 04:24:10 37° WNW 04:28:17 10° N
Cosmos 2016 Rocket 4.3 04:21:08 10° N 04:27:32 79° E 04:33:50 10° S
USA 234 4.3 04:23:21 10° NE 04:29:11 36° NNW 04:35:02 10° W
Cosmos 2100 Rocket 4.0 04:24:53 10° NNW 04:30:59 62° W 04:37:06 10° S
METEOR-M 4.4 04:26:50 10° NNE 04:32:13 78° ESE 04:37:34 10° S
Meteor 2-10 4.4 04:27:48 10° NNW 04:33:18 51° W 04:38:37 10° SSW
CZ-2C R/B 2.9 04:29:24 10° N 04:33:55 42° WNW 04:38:32 10° SW
Cosmos 1607 4.3 04:27:57 10° SSW 04:34:19 75° ESE 04:40:50 10° NE
Cosmos 1818 3.6 04:30:04 10° NW 04:35:34 76° WSW 04:41:00 10° SSE
Cosmos 1707 2.8 04:32:42 10° SSW 04:36:30 56° W 04:40:19 10° N
Cosmos 2061 Rocket 4.1 04:30:51 10° N 04:37:06 87° E 04:43:22 10° S
RESURS DK-1 3.4 04:33:39 10° NNW 04:37:44 53° ENE 04:41:48 10° SE
USA 306 4.0 04:34:58 10° NW 04:39:09 47° NNE 04:43:18 10° ESE
Cosmos 1400 Rocket 3.4 04:35:54 10° NNW 04:39:45 39° W 04:43:35 10° SSW
ALOS 2.3 04:35:16 10° N 04:39:54 64° WNW 04:44:30 10° SSW
Cosmos 2173 Rocket 4.1 04:34:40 10° NNW 04:40:35 55° W 04:46:31 10° SSW
